Dushanbe, Tajikistan

12:36 AM +05 on November 20, 2017 (GMT +0500)
Dushanbe

Weather History for UTDD - November, 2017

Change the Weather History Date:

Tuesday, November 14, 2017

  Actual Average Record
Temperature  
Mean Temperature 46 °F -  
Max Temperature 50 °F - - ()
Min Temperature 43 °F - - ()
Degree Days  
Heating Degree Days 18    
Moisture  
Dew Point 40 °F    
Average Humidity 73    
Maximum Humidity 93    
Minimum Humidity 54    
Precipitation  
Precipitation 0.00 in 0.07 in - ()
Sea Level Pressure  
Sea Level Pressure 30.11 in    
Wind  
Wind Speed 4 mph ()    
Max Wind Speed 9 mph    
Max Gust Speed -    
Visibility 5.1 miles    
Events Rain    
T = Trace of Precipitation, MM = Missing Value Source: Averaged Metar Reports

Daily Weather History Graph

Daily Weather History Graph

Search for Another Location

Airport or City:

Trip Planner

Search our weather history database for the weather conditions in past years. The results will help you decide how hot, cold, wet, or windy it might be!

Date:

Astronomy

Nov. 14, 2017 Rise Set
Actual Time 7:05 AM +05 5:12 PM +05
Civil Twilight 6:37 AM +05 5:40 PM +05
Nautical Twilight 6:05 AM +05 6:12 PM +05
Astronomical Twilight 5:33 AM +05 6:44 PM +05
Moon 2:43 AM +05 (11/14) 3:19 PM +05 (11/14)
Length of Visible Light 11h 03m
Length of Day
10h 07m
Waning Crescent, 17% of the Moon is Illuminated
Nov 14
Waning Crescent
Nov 18
New
Nov 26
First Quarter
Dec 3
Full
Dec 10
Last Quarter

Hourly Weather History & Observations

Time (+05) Temp. Windchill Dew Point Humidity Pressure Visibility Wind Dir Wind Speed Gust Speed Precip Events Conditions
12:00 AM 51.8 °F - 39.2 °F 62% 30.09 in 6.2 mi West 6.7 mph - N/A   Scattered Clouds
12:30 AM 51.8 °F - 39.2 °F 62% 30.09 in 6.2 mi West 6.7 mph - N/A   Scattered Clouds
1:00 AM 51.8 °F - 39.2 °F 62% 30.09 in 6.2 mi WSW 6.7 mph - N/A   Mostly Cloudy
1:30 AM 50.0 °F - 41.0 °F 71% 30.09 in 6.2 mi South 4.5 mph - N/A   Scattered Clouds
2:00 AM 49 °F - 39 °F 58% 29.99 in - Calm Calm - -   Partly Cloudy
2:00 AM 48.2 °F - 41.0 °F 76% 30.09 in 5.6 mi Variable 2.2 mph - N/A   Mostly Cloudy
2:30 AM 48.2 °F - 41.0 °F 76% 30.09 in 5.6 mi Variable 4.5 mph - N/A   Scattered Clouds
3:00 AM 48.2 °F - 41.0 °F 76% 30.09 in 6.2 mi Variable 2.2 mph - N/A   Partly Cloudy
3:30 AM 50.0 °F - 39.2 °F 66% 30.09 in 6.2 mi West 6.7 mph - N/A   Scattered Clouds
4:00 AM 48.2 °F - 39.2 °F 71% 30.09 in 6.2 mi Variable 4.5 mph - N/A   Scattered Clouds
4:30 AM 48.2 °F - 39.2 °F 71% 30.06 in 6.2 mi Variable 4.5 mph - N/A   Mostly Cloudy
5:00 AM 46 °F - 36 °F 57% 29.99 in - Calm Calm - -   Partly Cloudy
5:00 AM 50.0 °F - 37.4 °F 62% 30.06 in 6.2 mi Variable 2.2 mph - N/A   Mostly Cloudy
5:30 AM 48.2 °F - 39.2 °F 71% 30.06 in 6.2 mi SSE 4.5 mph - N/A   Mostly Cloudy
6:00 AM 48.2 °F - 39.2 °F 71% 30.06 in 5.6 mi Variable 2.2 mph - N/A   Partly Cloudy
6:30 AM 48.2 °F - 39.2 °F 71% 30.09 in 5.0 mi East 2.2 mph - N/A   Mostly Cloudy
7:00 AM 48.2 °F - 39.2 °F 71% 30.09 in 4.3 mi Calm Calm - N/A   Mostly Cloudy
7:30 AM 48.2 °F - 39.2 °F 71% 30.09 in 4.3 mi WSW 2.2 mph - N/A   Mostly Cloudy
8:00 AM 47 °F - 39 °F 65% 29.99 in 6 mi Calm Calm - -   Mist
8:00 AM 48.2 °F - 39.2 °F 71% 30.12 in 4.3 mi SW 2.2 mph - N/A   Mostly Cloudy
8:30 AM 48.2 °F - 39.2 °F 71% 30.12 in 3.7 mi SSW 4.5 mph - N/A   Mostly Cloudy
9:00 AM 48.2 °F - 39.2 °F 71% 30.12 in 3.1 mi Variable 4.5 mph - N/A   Smoke
9:30 AM 48.2 °F - 41.0 °F 76% 30.12 in - SW 4.5 mph - N/A Rain Light Rain Showers
10:00 AM 48.2 °F - 41.0 °F 76% 30.15 in 3.1 mi Variable 2.2 mph - N/A   Smoke
10:30 AM 48.2 °F - 41.0 °F 76% 30.15 in - SSW 4.5 mph - N/A   Smoke
11:00 AM 49 °F - 37 °F 54% 30.01 in 6 mi Calm Calm - -   Mist
11:00 AM 50.0 °F - 41.0 °F 71% 30.15 in 3.1 mi SSW 4.5 mph - N/A   Smoke
11:30 AM 50.0 °F - 39.2 °F 66% 30.12 in 3.1 mi Variable 4.5 mph - N/A   Smoke
12:00 PM 51.8 °F - 37.4 °F 58% 30.12 in 3.1 mi West 8.9 mph - N/A   Smoke
12:30 PM 50.0 °F - 37.4 °F 62% 30.12 in 6.2 mi West 8.9 mph - N/A   Mostly Cloudy
1:00 PM 50.0 °F - 39.2 °F 66% 30.12 in 6.2 mi West 8.9 mph - N/A   Mostly Cloudy
1:30 PM 50.0 °F - 39.2 °F 66% 30.12 in 6.2 mi West 8.9 mph - N/A   Mostly Cloudy
2:00 PM 50 °F - 39 °F 57% 30.01 in 6 mi West 6.7 mph - -   Mist
2:00 PM 50.0 °F - 39.2 °F 66% 30.12 in 6.2 mi West 6.7 mph - N/A   Mostly Cloudy
2:30 PM 50.0 °F - 39.2 °F 66% 30.12 in 6.2 mi West 6.7 mph - N/A   Mostly Cloudy
3:00 PM 48.2 °F - 41.0 °F 76% 30.12 in 5.6 mi WSW 6.7 mph - N/A   Mostly Cloudy
3:30 PM 48.2 °F - 41.0 °F 76% 30.12 in 6.2 mi West 6.7 mph - N/A   Overcast
4:00 PM 48.2 °F - 41.0 °F 76% 30.12 in 5.0 mi West 6.7 mph - N/A   Scattered Clouds
4:30 PM 48.2 °F - 41.0 °F 76% 30.12 in 6.2 mi West 6.7 mph - N/A   Scattered Clouds
5:00 PM 48 °F - 40 °F 64% 30.02 in 6 mi West 6.7 mph - -   Mist
5:00 PM 48.2 °F - 41.0 °F 76% 30.15 in 5.0 mi WSW 6.7 mph - N/A   Scattered Clouds
5:30 PM 46.4 °F 42.0 °F 41.0 °F 81% 30.15 in 5.0 mi West 8.9 mph - N/A   Scattered Clouds
6:00 PM 46.4 °F 43.0 °F 41.0 °F 81% 30.15 in 5.0 mi WSW 6.7 mph - N/A   Scattered Clouds
6:30 PM 46.4 °F 43.0 °F 41.0 °F 81% 30.15 in 5.0 mi West 6.7 mph - N/A   Overcast
7:00 PM 46.4 °F 43.0 °F 41.0 °F 81% 30.15 in 5.0 mi West 6.7 mph - N/A   Overcast
7:30 PM 46.4 °F 43.0 °F 41.0 °F 81% 30.18 in 4.3 mi West 6.7 mph - N/A   Overcast
8:00 PM 45 °F - 39 °F 72% 30.07 in - West 4.5 mph - -   Overcast
8:00 PM 46.4 °F 44.4 °F 41.0 °F 81% 30.18 in 3.1 mi Variable 4.5 mph - N/A   Overcast
8:30 PM 44.6 °F 42.3 °F 41.0 °F 87% 30.18 in - WSW 4.5 mph - N/A   Light Drizzle
9:00 PM 44.6 °F - 42.8 °F 93% 30.18 in 1.7 mi Variable 2.2 mph - N/A   Light Drizzle
9:30 PM 44.6 °F - 42.8 °F 93% 30.18 in - Calm Calm - N/A   Light Drizzle
10:00 PM 44.6 °F - 42.8 °F 93% 30.18 in - East 2.2 mph - N/A   Light Drizzle
10:30 PM 44.6 °F 42.3 °F 42.8 °F 93% 30.18 in - SE 4.5 mph - N/A   Light Drizzle
11:00 PM 44 °F - 41 °F 85% 30.09 in - Calm Calm - - Rain Light Rain Showers
11:00 PM 44.6 °F - 42.8 °F 93% 30.18 in 2.5 mi Variable 2.2 mph - N/A   Light Drizzle
11:30 PM 44.6 °F 42.3 °F 42.8 °F 93% 30.18 in 2.5 mi SSW 4.5 mph - N/A   Light Drizzle